Wind_Speed
20 20 22 25 26 27 27 27 28 28 27 26 25 23 21 19 18 16 15 14 13 12 11 9 8 7 7 7 7 7 8 9 10 11 11 12 11 11 11 10 10 10 10 10 10 10 11 11 11 12 12 12 12 11 11 11 11 11 11 10 10 10 11 11 12 12 12 12 12
20 21 23 25 26 27 27 28 28 28 26 25 23 21 20 18 17 16 15 14 13 11 10 8 8 7 7 7 7 8 8 9 10 11 11 10 10 10 9 9 9 9 9 9 10 10 11 11 11 11 12 12 12 11 11 11 11 11 11 11 11 11 12 12 12 12 12 13 13
21 22 24 26 27 27 28 29 28 27 26 24 22 20 19 18 17 16 15 13 12 10 9 8 7 7 7 7 7 8 9 9 10 10 10 9 9 9 9 9 9 9 9 9 10 10 11 11 11 11 11 12 11 11 11 11 11 11 11 11 12 12 12 12 13 13 13 13 13
22 23 25 27 27 28 29 29 28 27 25 23 21 20 19 18 16 15 14 12 11 9 9 8 8 7 7 7 8 8 9 9 9 9 9 9 8 8 8 8 8 9 9 9 10 10 11 11 11 11 11 11 11 11 11 11 11 11 11 12 12 12 12 13 13 13 14 14 14
22 24 25 27 27 28 28 28 27 26 24 23 22 20 19 17 16 15 13 12 10 9 9 8 8 7 7 7 8 8 8 9 8 8 8 8 8 8 8 8 8 9 9 10 10 10 11 11 11 11 11 11 11 10 11 11 11 12 12 12 12 13 13 13 14 14 14 14 14
23 24 26 27 28 28 28 27 26 25 24 23 22 21 19 18 16 14 13 11 10 10 9 8 8 7 7 7 8 8 8 8 8 8 8 8 8 8 8 8 9 9 10 10 10 10 11 11 10 10 10 10 10 10 11 11 11 12 13 13 13 13 14 14 14 14 14 14 14
24 25 27 28 29 29 28 27 26 25 24 23 22 20 19 18 16 14 13 11 11 10 9 8 7 7 7 7 8 8 8 8 8 8 8 8 8 8 8 9 9 9 10 10 10 10 10 10 10 10 10 10 10 10 11 11 12 12 13 13 14 14 14 14 14 14 14 14 14
24 26 28 29 29 28 27 26 25 24 23 22 21 20 18 17 15 14 13 12 11 10 9 8 7 7 7 8 8 8 8 8 8 8 8 8 8 8 9 9 9 9 10 10 10 10 10 10 10 10 10 10 10 11 11 12 12 13 14 14 15 15 15 15 14 14 14 14 14
26 28 30 30 29 28 26 25 25 24 23 21 20 18 17 16 14 13 12 11 10 9 9 8 8 8 8 8 8 8 8 8 8 8 8 8 8 8 9 9 9 9 9 10 10 9 10 10 10 10 10 10 11 11 11 12 13 13 14 15 15 16 15 15 14 13 13 13 13
28 30 31 30 29 27 26 25 24 23 22 21 19 18 16 15 14 13 12 11 10 9 9 8 8 8 8 8 8 8 8 8 8 8 8 8 8 8 8 9 9 9 9 9 9 9 9 9 10 10 10 11 11 11 12 13 13 14 15 15 16 16 15 14 13 13 13 13 13
30 32 32 31 29 27 26 25 24 22 21 20 19 17 16 15 14 13 12 11 10 9 9 8 8 8 8 8 8 7 7 7 7 7 7 7 8 8 8 8 9 9 9 9 9 9 9 10 10 10 11 11 11 12 12 13 14 15 15 15 15 15 15 14 13 12 12 13 14
32 33 32 30 29 27 26 25 24 22 21 19 18 17 16 15 14 13 12 11 10 9 9 8 8 8 8 7 7 7 7 7 6 6 6 7 7 8 8 8 8 8 8 9 9 9 10 10 10 11 11 12 12 13 13 14 14 15 15 15 15 15 15 14 13 12 13 13 14
33 33 32 30 29 28 26 25 24 22 20 19 18 17 16 15 14 12 11 10 10 9 9 8 8 7 7 7 7 6 6 6 6 6 6 6 7 7 8 8 8 8 8 9 9 9 10 10 11 11 12 13 13 13 14 14 15 15 15 15 15 14 14 14 13 13 13 14 15
34 33 32 31 29 28 26 25 24 22 20 19 18 17 16 15 13 12 11 10 10 9 8 8 7 7 7 6 6 6 5 5 5 5 6 7 7 7 8 8 8 8 9 9 9 10 10 10 11 12 13 14 14 14 14 14 14 14 15 15 14 14 14 14 14 14 15 15 16
35 33 32 31 29 28 26 25 24 22 21 19 18 17 16 15 13 12 11 10 9 9 8 8 7 7 6 6 5 5 5 5 5 6 6 7 7 8 8 8 8 8 9 9 9 10 10 11 11 12 13 14 15 15 15 14 14 14 14 14 14 15 15 15 15 15 16 16 17
35 34 32 31 30 28 26 25 24 22 21 20 18 17 16 15 13 12 11 10 9 9 8 8 7 6 6 5 5 5 5 5 5 6 7 7 8 8 8 8 8 9 9 9 10 10 10 11 12 12 13 14 15 15 15 14 14 14 14 14 14 15 15 16 16 16 17 17 18
36 34 33 31 30 28 26 25 24 22 21 20 18 17 15 14 13 12 11 10 9 9 8 7 7 6 5 5 5 5 5 5 6 7 7 8 8 8 9 9 9 9 9 10 10 10 11 11 12 13 14 14 15 15 15 14 14 14 14 14 15 15 16 16 17 17 18 18 19
36 35 33 31 29 28 27 25 24 22 21 20 18 16 15 14 13 12 11 10 9 8 8 7 6 6 5 5 5 5 6 6 7 7 8 8 9 9 9 9 9 9 10 10 10 11 11 12 13 13 14 15 15 15 14 14 14 14 15 15 16 16 17 17 17 18 18 19 19
36 35 33 31 29 28 26 25 24 22 21 19 17 16 15 13 12 11 10 10 9 8 8 7 6 6 5 5 5 6 6 7 8 8 9 9 9 9 9 9 9 10 10 10 11 11 12 13 13 14 14 15 15 14 14 14 14 15 15 16 17 17 18 18 18 18 19 19 20
36 35 33 31 29 28 26 25 23 21 20 18 16 15 14 13 12 11 10 10 9 8 8 7 6 6 6 6 6 7 7 8 8 9 9 10 10 10 10 10 10 10 10 10 11 12 13 13 14 14 15 15 14 14 14 15 15 16 17 17 18 19 19 19 19 19 20 20 20
36 34 32 30 29 27 25 24 22 20 19 17 16 15 14 13 12 11 10 9 9 8 8 7 6 6 6 7 7 8 8 9 9 10 10 10 10 10 10 10 10 10 10 11 11 12 13 14 15 15 15 14 14 15 15 16 16 17 18 19 19 20 20 20 20 20 21 21 21
36 33 31 29 28 26 25 23 21 20 18 17 16 14 13 12 12 11 10 9 8 8 7 7 7 7 7 8 8 9 9 10 10 11 11 11 11 11 11 11 11 11 11 11 12 13 14 15 15 15 15 15 15 15 16 17 18 19 19 20 20 21 21 21 21 21 21 21 21
35 32 30 28 27 25 24 22 21 19 18 17 15 14 13 12 11 11 10 9 9 8 7 7 7 8 8 9 9 10 10 11 11 11 11 11 11 11 11 11 11 11 11 11 12 13 15 16 16 16 15 15 16 16 17 18 19 20 20 21 21 22 22 22 22 22 22 22 21
34 32 30 28 27 25 24 22 20 19 18 17 15 14 13 12 12 11 10 9 9 8 8 8 8 9 9 10 10 11 11 11 11 11 11 11 11 11 11 11 11 11 11 12 13 14 15 16 16 16 16 16 17 17 18 19 19 20 21 21 22 22 23 23 23 23 22 22 22
33 31 30 28 26 25 23 22 20 19 18 16 15 14 13 12 12 11 10 10 9 8 8 8 9 9 10 10 11 11 11 12 12 12 12 12 11 11 11 11 11 11 12 13 13 15 15 15 15 15 16 16 17 18 19 19 20 20 21 21 22 22 23 23 23 23 23 22 22
33 31 30 28 26 24 23 21 20 19 17 16 15 14 13 13 12 11 10 10 9 9 9 9 10 10 10 11 11 11 12 12 12 12 12 12 12 12 12 11 11 12 12 13 14 15 15 14 14 14 15 16 17 18 19 19 20 20 20 21 22 22 23 23 24 24 23 23 23
33 31 29 28 26 24 23 21 20 18 17 16 15 14 14 13 12 11 11 10 10 9 9 10 10 10 11 11 11 11 12 12 12 12 12 12 12 12 12 12 12 12 13 14 15 16 16 15 14 14 14 15 16 18 19 19 20 20 20 21 21 22 22 23 23 24 24 24 24
33 31 29 27 25 24 22 21 20 19 17 16 15 14 14 13 12 12 11 10 10 10 10 10 10 10 11 11 11 11 11 12 12 12 12 12 12 13 13 13 13 13 13 14 15 16 16 16 15 14 14 15 16 17 18 19 20 20 21 21 21 22 22 22 23 24 24 24 24
33 31 29 27 25 24 22 21 20 19 17 16 15 15 14 13 13 12 11 11 10 10 10 10 10 10 11 11 11 11 11 12 12 12 12 12 13 13 13 13 13 14 14 15 16 16 17 16 16 15 15 15 16 17 18 19 19 20 21 21 21 22 22 22 23 23 24 24 24
32 30 28 27 25 24 22 21 20 19 17 17 16 15 14 14 13 13 12 11 11 10 10 10 10 10 11 11 11 12 12 12 12 12 12 12 13 13 13 14 14 14 15 15 16 17 17 17 16 15 15 15 16 17 18 18 19 20 21 21 22 22 22 23 23 23 23 23 23
31 29 28 26 25 23 22 21 20 19 18 17 16 16 15 14 14 13 12 11 10 10 10 10 10 10 11 11 12 12 12 12 12 12 12 12 13 13 14 14 15 15 15 16 17 17 17 17 16 16 16 16 16 16 17 18 19 20 21 21 22 22 22 23 23 23 22 22 22
30 29 27 26 24 23 22 21 20 19 18 17 17 16 16 15 14 13 12 11 10 10 10 10 10 11 11 12 12 12 12 12 12 12 12 12 13 14 14 15 16 16 16 16 17 17 17 17 16 16 16 16 16 16 17 18 19 20 21 22 22 22 22 22 21 21 21 21 21
30 28 26 25 24 23 22 21 20 19 19 18 17 17 16 15 14 13 12 11 10 10 10 11 11 11 12 12 12 13 13 13 12 12 12 13 13 14 15 16 16 16 16 17 17 17 17 17 17 17 17 16 16 16 18 19 20 21 21 22 22 21 21 20 20 20 21 21 21
29 28 26 25 24 23 22 21 20 20 19 18 17 17 16 15 14 13 12 11 10 10 10 11 11 12 12 12 13 13 13 13 13 13 13 13 14 15 16 16 17 17 17 17 17 18 18 18 17 17 17 16 16 17 18 20 20 21 21 21 21 20 19 19 20 20 21 21 21
29 28 26 25 24 23 22 21 21 20 19 18 18 17 16 15 14 13 11 10 10 10 11 11 12 12 12 13 13 13 13 13 13 13 13 14 14 15 16 17 17 17 17 17 18 18 18 18 18 17 16 16 17 18 19 20 20 20 20 20 20 20 19 19 20 20 21 21 21
29 27 26 25 24 23 22 21 21 20 19 19 18 17 16 15 14 12 11 11 11 11 11 12 12 12 13 13 13 13 13 13 14 14 14 15 15 16 17 18 18 18 18 18 18 19 19 18 18 17 16 16 17 18 19 19 19 20 20 20 20 20 20 20 21 21 21 21 22
28 27 26 25 24 23 22 21 21 20 19 19 18 17 16 15 13 12 11 11 11 12 12 12 12 13 13 13 13 13 14 14 14 15 15 15 16 16 17 18 19 19 19 19 19 19 19 18 17 16 16 17 18 18 18 19 19 19 20 20 21 21 21 21 21 22 22 22 23
27 26 25 24 23 23 22 21 21 20 19 18 17 16 15 14 13 12 12 12 12 12 12 12 13 13 13 13 14 14 14 15 15 15 16 16 16 17 18 19 20 20 20 20 19 19 19 18 17 16 16 16 17 18 18 18 19 20 20 21 21 21 21 21 21 22 23 23 23
27 25 24 23 22 22 21 21 20 19 18 17 16 15 14 14 13 13 12 12 12 12 12 13 13 13 14 14 14 15 15 16 16 16 17 17 17 17 18 19 21 21 21 20 20 19 19 18 17 16 15 16 16 17 17 18 19 20 21 21 21 21 20 20 20 21 22 23 24
26 24 23 22 21 21 20 20 19 18 17 16 16 15 14 13 13 13 12 12 12 12 13 13 14 14 14 14 15 16 17 17 17 17 17 18 18 18 19 20 21 22 21 21 20 19 19 18 17 16 15 15 16 16 17 18 19 20 20 20 19 19 19 19 20 20 22 23 24
25 23 22 21 20 20 19 19 18 17 16 16 15 14 14 13 13 13 13 13 13 13 13 13 14 14 15 15 16 17 18 18 19 19 18 18 18 19 19 20 21 22 22 21 20 19 19 18 17 16 15 15 15 16 17 18 19 19 19 19 18 18 19 20 20 21 22 23 24
Wind_Direction
206 204 200 195 192 191 190 188 185 183 182 182 182 183 186 187 186 187 188 191 194 197 199 203 211 221 232 242 251 260 268 275 281 286 291 295 298 300 303 304 305 305 306 308 309 311 313 315 318 319 319 319 320 320 319 318 319 318 317 314 311 308 307 307 306 305 303 301 299
202 200 196 193 191 189 187 184 181 180 181 183 185 186 187 189 190 190 190 191 194 198 202 207 217 225 233 242 251 261 269 277 283 288 292 295 298 300 302 303 304 305 307 308 310 312 314 316 318 318 318 317 319 318 317 316 317 317 315 312 310 308 307 306 305 304 303 301 299
198 196 194 191 189 187 183 179 178 178 180 182 185 187 188 190 192 192 192 192 195 200 206 211 219 225 233 242 254 264 272 279 285 289 292 294 297 299 300 302 304 306 308 310 313 315 316 317 318 318 317 316 317 317 316 315 316 315 313 311 310 309 307 306 305 303 302 301 299
196 195 193 191 188 184 181 178 177 178 180 182 184 186 188 190 191 192 192 193 196 201 207 214 219 225 234 245 257 267 274 280 284 288 290 293 294 297 299 302 305 307 309 312 315 316 317 318 318 317 316 316 316 315 315 315 315 314 313 312 311 309 307 305 305 304 302 301 300
196 195 193 190 187 183 181 180 179 180 181 183 184 185 186 188 190 191 192 194 196 202 208 213 218 227 237 249 260 269 275 279 282 284 287 290 292 296 300 304 306 309 311 313 315 316 317 317 318 316 316 316 316 315 315 315 314 313 313 313 311 309 308 306 305 304 303 301 300
195 194 191 188 185 182 181 182 183 184 184 185 186 186 186 187 188 191 192 194 198 203 207 212 219 229 242 252 261 267 272 275 278 281 284 287 291 296 301 305 307 310 313 314 315 316 316 317 316 315 315 316 316 316 315 315 315 314 313 312 311 310 308 306 305 304 303 302 302
195 192 188 185 183 182 182 183 185 186 186 187 188 188 187 187 188 190 193 197 199 202 205 211 221 232 243 251 258 264 268 272 275 278 281 285 291 296 301 305 309 311 313 313 314 315 315 315 315 314 314 315 315 315 315 315 314 314 313 312 311 310 308 306 306 305 304 303 302
194 190 186 183 183 183 184 185 186 187 187 187 188 188 189 189 189 191 194 196 197 200 206 213 224 235 244 252 257 261 265 268 272 276 281 286 292 298 302 306 310 311 311 312 313 313 313 314 314 313 313 314 314 315 315 315 314 313 313 312 311 310 309 307 306 305 304 303 302
191 187 184 182 183 184 186 187 187 187 187 186 186 187 188 189 190 191 191 191 195 201 208 217 226 236 246 252 257 260 263 267 271 277 283 289 295 300 304 307 309 310 311 310 311 311 311 312 312 312 312 313 314 314 315 315 314 313 313 312 311 310 308 307 306 305 303 302 302
187 183 181 180 181 184 185 185 186 187 186 184 184 185 186 187 188 189 189 192 196 203 212 220 229 237 244 250 255 258 262 267 272 279 286 292 298 302 306 308 310 310 309 308 308 309 309 310 310 311 311 313 314 314 314 314 313 313 312 311 310 309 308 307 306 305 303 302 302
185 181 179 179 180 182 183 183 183 184 184 184 183 184 184 185 185 187 190 194 200 207 215 222 230 237 243 248 252 256 262 268 274 282 290 297 302 305 308 309 309 308 307 306 306 307 308 308 308 309 310 312 313 314 314 314 313 312 311 310 309 308 307 306 306 306 305 304 303
183 180 179 179 180 181 182 181 181 181 183 184 184 183 182 183 184 187 190 196 203 211 216 223 229 236 240 245 250 256 262 269 278 287 295 302 306 309 310 310 309 307 305 304 304 305 306 306 308 309 311 312 313 314 314 314 313 312 311 310 308 307 306 307 308 307 307 306 306
181 179 178 179 180 181 181 181 181 181 183 184 183 182 181 182 185 188 193 199 206 212 217 222 227 232 237 242 249 255 263 273 284 294 302 307 310 311 310 309 307 305 303 302 303 304 305 306 308 310 311 312 313 314 314 314 313 311 310 309 308 307 307 308 309 310 309 309 308
180 179 178 179 180 181 182 182 181 182 182 182 182 181 181 183 186 190 195 202 207 211 215 219 224 228 233 239 247 255 266 279 291 301 308 311 311 311 309 307 304 303 301 301 302 303 305 306 308 310 311 312 313 313 313 313 312 311 309 308 307 307 308 309 311 311 311 311 310
179 179 180 180 181 182 182 182 182 181 181 181 181 181 182 185 187 191 196 201 206 210 214 217 219 223 230 237 246 258 271 285 297 305 310 311 311 309 308 305 302 301 300 300 301 304 305 307 309 310 311 312 313 313 313 313 311 310 308 308 307 308 309 310 311 312 312 312 312
179 180 181 181 182 182 182 182 182 181 180 181 180 181 183 186 188 191 195 199 203 208 211 213 215 221 228 237 249 263 278 289 299 305 308 309 308 307 306 303 301 299 299 300 302 304 306 308 309 310 310 311 312 313 313 312 311 309 308 307 308 308 309 310 311 312 312 312 312
180 180 181 182 182 182 182 182 181 180 180 180 181 182 184 186 188 190 193 198 202 205 207 209 215 221 229 240 254 268 280 290 297 301 304 304 305 304 303 301 299 299 299 301 303 305 307 308 309 310 310 311 311 312 312 311 310 309 308 308 308 308 308 309 310 311 311 311 310
180 181 181 182 182 182 182 181 180 180 180 180 181 182 184 186 187 189 192 196 200 202 205 209 217 225 235 245 259 270 279 286 292 296 298 300 301 302 301 300 298 299 300 302 305 306 308 309 309 310 311 311 311 311 311 310 309 309 309 308 308 308 308 309 309 310 310 309 309
180 180 181 181 182 181 181 180 179 179 179 180 180 181 183 185 187 189 192 195 199 203 206 212 219 230 240 251 261 270 276 281 285 290 293 296 298 299 299 298 298 299 301 304 306 308 309 310 310 311 311 311 311 311 311 311 310 309 309 309 308 307 308 308 309 309 309 309 309
181 181 181 181 181 180 179 178 178 178 178 179 179 180 182 183 186 190 193 196 200 205 211 217 224 233 244 254 262 267 272 276 281 285 288 292 294 295 296 296 296 299 301 304 306 308 309 310 312 312 312 312 312 312 312 312 311 310 309 308 307 307 308 308 309 309 309 309 308
181 181 180 180 179 178 177 177 177 177 177 178 178 179 181 183 187 191 195 199 205 210 216 223 231 240 248 256 261 265 269 273 277 281 285 289 291 292 293 294 296 299 302 305 307 309 310 311 312 313 314 314 314 314 314 313 311 310 308 307 307 307 307 308 308 308 308 308 308
180 180 179 178 177 177 176 176 176 176 176 176 178 179 182 184 188 192 197 203 209 215 222 229 238 246 253 258 261 264 267 271 274 279 282 286 288 289 291 293 296 299 302 305 308 310 311 313 314 315 316 316 316 316 314 312 310 309 307 307 306 306 307 307 307 307 307 307 307
179 178 176 176 175 175 175 175 175 175 175 176 178 180 182 186 190 195 200 206 212 219 226 235 244 251 256 260 262 265 267 270 274 278 281 284 286 287 289 291 295 299 303 306 309 311 313 315 317 318 319 318 317 314 312 309 307 306 306 305 305 305 305 305 305 306 306 306 306
176 175 174 174 174 174 174 174 174 174 175 176 178 181 184 188 192 197 202 208 214 222 231 239 247 253 257 260 263 265 268 271 274 277 280 282 283 284 287 290 294 298 303 307 310 313 316 318 319 320 319 317 313 310 307 306 304 303 303 303 303 303 303 303 304 304 305 305 305
174 173 173 173 173 174 174 173 174 175 176 177 180 183 186 190 195 199 205 211 218 225 234 242 248 254 258 261 264 267 269 272 275 277 279 280 282 283 286 289 294 299 304 308 312 315 318 319 318 315 312 308 306 303 302 300 300 300 300 300 301 301 302 302 302 303 303 304 304
173 172 172 173 173 173 173 174 174 175 177 179 181 185 189 193 198 203 209 215 221 229 236 244 250 256 260 263 266 269 271 274 276 278 279 280 281 284 286 290 295 300 305 310 313 316 318 317 312 307 303 300 298 298 297 297 297 297 298 298 299 299 300 301 302 302 303 303 304
172 172 172 173 173 173 173 174 175 176 178 180 183 187 191 196 201 207 212 218 224 232 239 246 253 258 263 266 269 272 273 275 276 277 279 280 282 284 288 291 297 302 307 311 314 316 318 315 311 305 300 297 295 295 295 295 295 296 296 296 297 297 298 299 300 301 302 303 303
172 172 172 172 172 173 173 174 176 178 180 183 186 190 195 200 205 210 215 221 227 234 242 249 256 261 266 270 272 274 275 276 276 277 278 280 283 286 289 293 298 303 308 311 314 316 316 313 310 306 301 297 295 294 293 293 294 294 294 295 295 296 297 298 299 301 302 303 304
172 172 172 172 172 173 174 176 178 180 182 185 189 194 199 204 209 213 218 224 230 238 245 253 259 265 269 272 275 276 276 276 276 276 277 280 283 286 290 294 299 303 307 311 313 314 314 313 310 306 301 297 295 293 292 292 292 292 293 293 294 295 296 297 298 300 301 302 303
173 172 172 172 173 174 175 177 180 182 185 188 193 197 202 207 211 216 221 227 233 241 250 258 264 269 272 275 276 277 276 276 275 276 277 280 283 286 290 294 299 303 307 310 311 313 313 312 309 304 300 296 294 292 291 290 290 291 291 291 292 294 295 297 298 299 301 302 303
172 172 172 173 174 175 177 179 181 184 188 192 196 201 205 210 214 218 224 230 238 247 256 263 269 273 276 278 278 277 276 276 276 276 277 280 283 287 291 294 299 303 306 309 310 312 312 310 306 302 299 296 294 292 290 289 289 289 289 290 291 293 294 296 297 299 300 302 302
172 172 173 174 175 177 178 181 183 187 191 196 200 204 209 213 217 222 227 234 243 252 261 267 273 277 278 279 278 278 277 277 276 277 278 281 284 287 291 295 298 302 306 308 309 311 310 307 304 301 298 296 294 291 289 288 287 287 288 289 290 292 293 295 297 299 300 300 301
173 173 174 175 177 178 180 183 186 190 194 199 203 208 212 216 220 225 230 238 247 256 264 271 276 278 279 279 279 278 278 278 278 279 280 282 285 288 291 294 298 302 305 307 308 309 308 305 302 300 298 296 294 290 287 286 286 286 287 288 290 291 293 295 297 298 299 299 299
173 174 175 177 178 180 182 185 189 193 197 202 206 211 215 219 223 227 233 241 251 260 268 273 277 279 280 280 280 280 280 281 281 281 281 283 285 288 291 294 298 301 304 305 307 307 306 305 302 300 298 295 292 288 286 285 286 286 288 289 291 293 295 296 298 298 299 299 299
175 175 177 179 180 182 184 188 191 196 200 205 210 214 218 222 226 231 237 245 254 262 269 274 277 279 281 282 282 283 283 283 283 283 283 284 286 288 290 293 297 300 302 303 304 305 304 304 302 300 297 294 290 286 285 285 286 288 289 291 293 295 296 298 299 299 299 299 299
176 177 178 180 182 184 187 190 194 199 204 208 213 216 220 224 229 234 240 248 256 263 268 273 276 279 280 282 284 284 284 283 283 283 284 284 286 288 290 293 296 298 300 302 302 302 303 302 301 299 295 291 287 285 285 286 288 289 291 293 294 296 298 300 300 300 300 300 300
177 179 180 182 184 186 189 193 197 201 206 211 215 219 223 227 231 235 241 249 256 263 269 273 277 280 283 285 286 285 284 283 283 283 283 284 285 287 290 292 295 297 299 300 300 301 301 301 300 297 293 288 286 285 286 288 290 291 292 293 295 297 299 300 300 300 300 300 300
179 180 182 183 185 188 191 195 199 204 209 213 217 221 226 230 234 238 243 250 256 263 269 275 280 284 288 290 289 287 285 284 283 283 283 284 285 287 289 291 293 295 297 298 299 299 300 299 298 295 290 286 285 286 288 289 290 291 292 293 294 296 298 299 299 299 298 298 298
181 182 184 186 188 190 193 197 202 207 211 215 220 224 228 233 237 242 246 252 258 265 272 279 285 289 291 291 290 288 286 285 284 283 283 284 285 286 287 289 291 293 295 297 297 298 298 297 296 293 288 283 283 285 287 288 290 291 291 291 292 294 296 296 297 296 296 296 296
183 184 186 188 191 193 196 200 205 210 214 219 224 228 232 236 241 245 250 255 261 268 276 283 289 292 293 291 289 288 287 286 285 284 283 283 284 285 285 286 289 291 294 295 296 296 296 295 293 290 286 283 282 284 286 288 289 289 288 289 290 292 293 294 294 294 294 295 296
185 187 189 192 194 197 200 204 208 213 218 223 228 233 237 241 244 248 252 257 264 272 279 286 290 292 292 290 289 287 287 286 286 284 284 283 283 282 283 284 287 289 291 293 294 294 294 292 291 288 285 282 283 284 286 287 286 286 286 287 288 290 292 294 294 294 294 294 296
Height
821 822 823 824 825 826 827 829 830 831 833 834 836 837 838 839 840 841 841 842 843 843 844 844 845 845 846 846 846 846 847 847 847 847 847 847 847 846 846 846 846 846 846 845 845 845 845 844 844 844 844 844 843 843 842 842 841 841 841 840 840 839 839 838 838 838 837 837 837
820 821 822 823 824 825 826 828 829 831 832 833 835 836 837 838 839 840 840 841 842 842 843 843 844 844 845 845 846 846 846 846 846 846 846 846 846 846 845 845 845 845 845 844 844 844 844 844 843 843 843 843 842 842 841 841 841 840 840 839 839 838 838 837 837 837 836 836 836
819 820 821 822 823 824 825 827 828 830 831 833 834 835 836 837 838 839 839 840 841 841 841 842 843 843 844 844 845 845 845 845 845 845 845 845 845 845 845 844 844 844 844 843 843 843 843 843 842 842 842 842 841 841 841 840 840 839 839 838 838 837 837 836 836 836 835 835 835
818 819 820 821 822 823 824 826 827 829 831 832 833 835 836 836 837 838 838 839 840 840 841 841 842 842 843 843 844 844 844 844 844 844 844 844 844 844 844 843 843 843 843 842 842 842 842 842 841 841 841 841 841 840 840 839 839 838 838 837 837 836 836 836 835 835 834 834 833
817 818 819 820 821 822 824 825 826 828 830 831 832 833 834 835 836 836 837 838 838 839 840 840 841 841 842 842 842 843 843 843 843 843 843 843 843 843 843 842 842 842 842 841 841 841 841 841 841 841 840 840 840 839 839 838 838 837 837 836 836 835 835 835 834 834 833 833 832
816 817 819 820 821 822 823 825 826 827 829 830 831 832 833 834 835 836 836 837 837 838 839 839 840 841 841 841 841 841 842 842 842 842 842 842 842 842 842 841 841 841 841 841 841 840 840 840 840 840 839 839 839 838 838 837 836 836 836 835 835 834 834 833 833 833 832 832 831
815 816 818 819 820 821 823 824 825 826 828 829 830 831 832 833 833 834 835 836 836 837 838 838 839 839 840 840 840 841 841 841 841 841 841 841 841 841 841 841 841 840 840 840 840 839 839 839 839 839 838 838 837 837 836 836 835 835 834 834 834 833 833 832 832 831 831 831 830
815 816 817 818 819 821 822 823 825 826 827 828 829 830 831 831 832 833 834 835 836 836 837 837 838 838 839 839 839 839 840 840 840 840 840 840 840 840 840 840 840 839 839 839 839 838 838 838 838 838 837 837 836 836 835 835 834 834 833 833 832 832 832 831 831 831 830 830 829
814 815 816 817 819 820 821 822 824 825 826 827 828 829 830 831 831 832 833 834 835 836 836 836 837 837 838 838 838 838 839 839 839 839 839 839 839 839 839 839 839 839 838 838 838 837 837 837 837 837 836 836 835 835 834 834 833 832 832 831 831 831 831 830 830 829 829 828 828
812 814 815 816 818 819 821 822 823 824 825 826 827 828 829 830 831 831 832 833 834 835 835 836 836 836 837 837 837 837 838 838 838 838 838 838 838 838 838 838 838 838 837 837 837 837 836 836 836 836 835 835 834 834 833 832 832 831 831 831 830 830 829 829 829 828 828 827 827
811 813 814 816 817 818 820 821 822 824 825 826 826 827 828 829 830 831 831 832 833 834 834 835 835 835 836 836 836 836 837 837 837 837 837 837 837 837 837 837 837 837 836 836 836 836 836 835 835 835 834 834 833 832 832 831 831 830 830 829 829 828 828 828 828 827 827 826 826
811 812 813 815 816 817 819 820 821 823 824 825 826 826 827 828 829 830 831 831 832 833 833 834 834 834 835 835 835 836 836 836 836 836 836 836 836 836 836 836 836 836 836 835 835 835 835 834 834 833 833 832 832 831 831 830 830 829 828 828 828 827 827 826 826 826 826 825 824
810 811 812 814 815 816 818 819 821 822 823 824 825 826 826 827 828 829 830 831 831 832 832 833 833 833 834 834 834 835 835 835 835 835 835 835 835 835 835 835 835 835 835 834 834 834 833 833 832 832 831 831 831 830 830 829 828 828 827 827 826 826 826 826 825 825 824 824 823
809 810 811 813 814 816 817 818 820 821 822 823 824 825 826 826 827 828 829 830 830 831 831 831 832 832 833 833 833 834 834 834 834 834 834 834 834 834 834 834 834 834 833 833 833 833 832 832 831 831 830 830 829 829 828 828 827 827 826 826 825 825 825 824 824 823 823 822 822
808 809 810 811 813 814 816 817 818 820 821 822 823 824 825 826 826 827 828 829 829 830 830 831 831 831 832 832 832 832 833 833 833 833 833 833 833 833 833 833 833 833 832 832 832 831 831 831 830 830 829 828 828 827 827 826 826 826 825 825 824 824 823 823 822 822 821 821 820
806 808 809 811 812 813 815 816 817 818 820 821 822 823 824 825 826 826 827 828 828 829 829 830 830 831 831 831 831 831 831 832 832 832 832 832 832 832 832 832 832 831 831 831 831 830 830 829 829 828 828 827 826 826 826 825 825 824 824 824 823 823 822 821 821 821 820 819 819
805 806 808 809 811 812 813 815 816 817 819 820 821 822 823 824 825 826 826 827 827 828 828 829 829 830 830 830 830 830 831 831 831 831 831 831 831 831 831 831 831 830 830 830 829 829 829 828 828 827 826 826 825 825 824 824 824 823 823 822 822 821 821 820 820 819 819 818 817
804 805 806 808 809 811 812 814 815 816 818 819 820 821 822 823 824 825 825 826 826 827 827 828 828 829 829 829 829 829 830 830 830 830 830 830 830 830 830 830 829 829 829 828 828 828 827 827 826 826 825 825 824 824 823 823 822 822 821 821 821 820 819 819 818 818 817 816 816
802 804 805 807 808 810 811 813 814 816 817 818 819 820 821 822 823 824 824 825 826 826 827 827 827 828 828 828 828 828 828 829 829 829 829 829 829 829 829 828 828 828 827 827 827 826 826 826 825 825 824 823 823 822 822 821 821 821 820 820 819 818 818 817 817 816 816 815 814
801 802 804 806 807 809 810 812 813 815 816 817 818 819 820 821 822 823 823 824 825 825 826 826 826 826 827 827 827 827 827 828 828 828 828 828 828 828 827 827 827 826 826 826 826 825 825 824 824 823 823 822 821 821 821 820 820 819 818 818 817 817 816 816 815 815 814 813 813
799 801 803 805 806 808 810 811 813 814 815 816 817 818 819 820 821 822 822 823 824 824 825 825 825 826 826 826 826 826 826 827 827 827 827 827 827 826 826 826 826 825 825 825 824 824 823 823 822 822 821 821 820 820 819 818 818 817 817 816 816 815 815 814 813 813 812 812 811
798 800 802 804 806 808 809 811 812 813 814 816 816 817 818 819 820 821 821 822 823 823 823 824 824 824 825 825 825 825 826 826 826 826 826 826 826 825 825 825 824 824 824 823 823 822 822 821 821 820 820 819 818 818 817 817 816 816 815 815 814 813 813 812 812 811 811 810 809
798 800 802 804 806 807 809 810 811 812 813 815 816 816 817 818 819 820 821 821 821 822 822 823 823 823 823 824 824 824 824 824 824 824 824 824 824 824 824 823 823 823 822 822 821 821 820 820 819 818 818 817 817 816 816 816 815 814 814 813 812 812 811 811 810 810 809 808 808
798 800 802 803 805 806 808 809 810 811 812 814 815 816 816 817 818 819 819 820 821 821 821 821 822 822 822 823 823 823 823 823 823 823 823 823 823 822 822 822 821 821 821 821 820 819 819 818 817 817 816 816 816 815 815 814 814 813 812 811 811 810 809 809 808 808 807 806 806
797 799 801 802 804 806 807 808 809 811 811 812 814 815 815 816 817 818 818 819 819 820 820 821 821 821 821 821 821 822 822 822 822 822 822 821 821 821 821 821 820 820 819 819 818 818 817 817 816 816 815 815 814 814 813 813 812 812 811 810 810 809 808 807 806 806 806 805 804
796 798 800 801 803 805 806 807 808 810 811 811 813 814 814 815 816 816 817 818 818 819 819 819 820 820 820 820 820 820 820 820 820 820 820 820 820 820 820 819 819 818 818 817 817 816 816 816 816 815 815 814 813 813 812 811 811 811 810 809 808 807 806 806 805 804 803 803 802
796 797 799 801 802 804 805 806 807 809 810 811 811 812 813 814 815 816 816 816 817 817 818 818 818 819 819 819 819 819 819 819 819 819 819 819 818 818 818 818 817 817 816 816 815 815 815 814 814 814 813 813 812 811 811 810 809 809 808 807 807 806 805 804 803 802 802 801 800
795 796 798 800 801 803 804 805 806 808 809 810 811 811 812 813 814 814 815 815 816 816 817 817 817 817 817 817 817 817 817 817 817 817 817 817 817 816 816 816 816 815 815 814 814 813 813 813 812 812 812 811 811 810 809 809 808 807 806 806 805 804 803 803 802 801 800 799 798
794 795 797 799 800 802 803 804 806 806 808 809 810 810 811 812 812 813 814 814 815 815 816 816 816 816 816 816 816 816 816 816 816 816 816 816 815 815 815 814 814 814 813 813 812 812 811 811 811 810 810 810 809 808 808 807 806 805 805 804 803 802 802 801 800 799 799 798 797
793 795 796 798 799 801 802 803 804 806 806 808 808 809 810 811 811 812 812 813 814 814 814 814 815 815 815 815 815 815 815 815 815 814 814 814 814 813 813 813 812 812 811 811 811 810 810 809 809 809 808 808 808 807 806 805 804 804 803 802 801 801 800 799 798 798 797 796 795
792 794 795 797 798 800 801 802 803 805 806 806 807 808 808 809 810 811 811 812 812 813 813 813 813 813 813 813 813 813 813 813 813 813 813 812 812 811 811 811 811 810 810 809 809 808 808 807 807 807 806 806 806 805 804 803 802 802 801 800 799 799 798 797 797 796 795 795 794
791 793 795 796 797 799 800 801 802 804 804 805 806 806 807 808 809 810 810 811 811 811 811 811 811 811 811 812 812 812 811 811 811 811 811 811 810 810 809 809 809 808 808 808 807 806 806 806 806 805 805 804 804 803 802 801 801 800 799 798 797 797 796 796 795 794 793 793 792
791 792 794 795 796 798 799 801 801 802 803 804 805 806 806 807 808 809 809 810 810 810 810 810 810 810 810 810 810 810 810 810 810 810 809 809 808 808 807 807 807 806 806 806 806 805 805 804 804 803 803 802 802 801 800 799 799 798 797 796 796 795 795 794 793 792 792 791 791
790 791 793 794 796 797 798 799 800 801 802 803 804 805 805 806 807 807 808 808 808 808 808 808 809 809 809 809 809 808 808 808 808 808 807 807 806 806 806 805 805 805 805 804 804 803 803 802 802 801 801 801 800 799 798 797 796 796 795 794 794 793 793 792 791 791 790 789 789
789 791 792 793 795 796 797 798 799 800 801 802 803 803 804 805 806 806 806 807 807 807 807 807 807 807 807 807 807 807 806 806 806 806 806 805 805 804 804 803 803 803 803 803 802 801 801 801 800 800 799 799 798 797 796 795 794 794 793 792 791 791 791 790 789 789 788 787 786
788 789 791 792 794 795 796 797 798 799 800 801 801 802 803 804 804 805 805 805 805 806 806 806 806 806 806 805 805 805 805 805 804 804 804 803 803 803 802 801 801 801 801 801 801 800 799 799 798 798 797 796 796 795 794 793 792 792 791 790 790 789 788 788 787 786 786 785 785
787 788 790 791 792 794 795 796 797 798 799 800 801 801 802 802 803 803 804 804 804 804 804 804 804 804 804 804 803 803 803 803 803 802 802 802 801 801 800 800 800 800 800 799 799 798 797 797 796 796 795 795 794 793 792 791 791 790 789 788 787 787 786 786 785 784 784 783 782
786 788 789 790 791 793 794 795 796 797 798 798 799 800 801 801 801 801 802 802 802 802 802 802 802 802 802 802 802 801 801 801 801 801 800 800 800 799 799 798 798 797 798 797 797 796 796 795 794 794 794 793 792 791 790 789 789 788 787 786 785 785 784 784 783 782 781 781 781
786 787 789 790 791 792 793 794 795 796 796 797 798 798 799 799 800 800 800 801 801 801 801 801 801 801 801 800 800 800 800 799 799 799 799 798 798 798 797 796 796 796 796 796 795 794 794 793 792 792 791 791 790 789 788 788 787 786 785 784 784 783 782 782 781 781 779 779 778
786 787 788 789 790 791 792 793 794 795 795 796 797 797 797 798 798 799 799 799 799 799 799 799 799 799 799 799 798 798 798 797 797 797 797 796 796 796 796 795 794 794 793 793 793 792 792 791 791 790 790 789 788 787 787 786 785 784 783 783 782 781 781 780 780 779 778 776 776
785 786 788 789 790 791 791 792 793 794 794 795 795 796 796 797 797 797 797 797 798 798 797 797 797 797 797 797 796 796 796 796 795 795 795 795 795 794 794 793 792 791 791 791 791 790 790 789 788 788 787 787 786 786 785 784 783 782 781 781 781 780 779 778 777 777 776 775 773